Location: Austin
(30.3000°N, 97.7500°W)
Time: 05:21:29
(UTC-06:00)

YAOGAN 1 - Pass Details

Date: 14 November 2024
Orbit: 609 x 611 km, 97.8° (Epoch: 06 December)

Event Time Altitude Azimuth Distance (km) Brightness Sun altitude
Rises 18:29:53 0° 137° (SE) 2,860 5.7 -12.2°
Reaches altitude 10° 18:32:26 10° 122° (ESE) 1,960 4.7 -12.7°
Maximum altitude 18:35:43 22° 71° (ENE) 1,344 3.6 -13.4°
Drops below altitude 10° 18:39:00 10° 21° (NNE) 1,967 4.8 -14.1°
Sets 18:41:33 0° 6° (N) 2,875 5.8 -14.7°
